FLOCK 2K-43 (42874 NORAD) Tracking and Keplerian Element Data

This shows tracking and keplerian element data for the satellite.

Feedback or suggestion? Click here.




ElementValue
Catalog42874
NameFLOCK 2K-43
Epoch Orbit3277
Epoch Day45.4038961
Epoch Year2018
RAAN308.0215
Inclination96.9929
Eccentricity0.0012509
Argument of Perigee179.0611
Mean Anonmoly181.0659
Mean Motion15.34105961
Decay Rate1.924E-05
L11 42874U 17042BB 18045.40389610 .00001924 00000-0 60377-4 0 9991
L22 42874 96.9929 308.0215 0012509 179.0611 181.0659 15.34105961 32776

Live tracking and technical data element details for FLOCK 2K-43 (NORAD 42874). FLOCK 2K-43 can be tracked NOW for your location showing map with azimuth and elevation plus other details from your city location.

Track the satellite on the map from your city or location and see movement details for azimuth, elevation, latitude, longitude, range, height, and movement on the map or in text.







IsCatalogInMostPopularTable: catalog: 42874, numindb: 115
Update: records affected: 1



GetName: 42874 FLOCK 2K-43

Hit Count: updated at: Mon, 12 Nov 2018 17:52:17 GMT